[Date Prev][Date Next][Thread Prev][Thread Next] - [Date Index][Thread Index][Author Index]
2 Line ISS Keps 3-31
- Subject: [sarex] 2 Line ISS Keps 3-31
- From: "Dave Larsen PhD" <doc@xxxxxxxxxxx>
- Date: Wed, 31 Mar 2004 00:27:04 -0800
ISS
1 25544U 98067A 04091.18975638 .00030934 00000-0 28133-3 0 4760
2 25544 51.6297 3.1763 0010785 339.1973 183.8174 15.67603855306072
----
Via the sarex mailing list at AMSAT.ORG courtesy of AMSAT-NA.
To unsubscribe, send "unsubscribe sarex" to Majordomo@amsat.org
AMSAT Home